This demonstration page uses our WeatherBlox Daily Observations layout. Learn more.

39.01783, -85.05884

Hourly Observations for January 21, 2020

Temp ( °F °C ) Dew Point ( °F °C ) Humidity (%) Winds ( mph kmh ) Pressure ( in mb ) Visibility ( mi km ) Precip ( " mm )
12:01 am 00:01 Cloudy with Light Snow 24 -4.4 13 -10.6 62 62 NE 8 13 30.61 1037 10 16.0934 0.001 0.001
12:52 am 00:52 Cloudy with Light Snow 24 -4.4 14 -10 65 65 NNE 6 9 30.57 1035 9 14.48406 0.001 0.001
1:52 am 01:52 Cloudy with Light Snow 24 -4.4 14 -10 65 65 NE 8 13 30.58 1036 9 14.48406 0.001 0.001
2:52 am 02:52 Cloudy with Light Snow 24 -4.4 14 -10 65 65 N 10 17 30.59 1036 9 14.48406 0.001 0.001
3:52 am 03:52 Cloudy with Light Snow 24 -4.4 14 -10 65 65 N 8 13 30.58 1036 9 14.48406 0.001 0.001
4:52 am 04:52 Cloudy with Light Snow 23 -5 13 -10.6 65 65 N 10 17 30.6 1036 9 14.48406 0.001 0.001
5:52 am 05:52 Cloudy 22 -5.6 10 -12.2 60 60 NNE 10 17 30.61 1037 10 16.0934 0.001 0.001
6:52 am 06:52 Cloudy 22 -5.6 10 -12.2 60 60 N 6 9 30.62 1037 10 16.0934 0 0
7:05 am 07:05 Cloudy 21 -6.1 10 -12.2 62 62 N 6 9 30.66 1038 10 16.0934 0 0
7:19 am 07:19 Mostly Clear 21 -6.1 10 -12.2 62 62 NNE 6 9 30.66 1038 10 16.0934 0 0
7:52 am 07:52 Mostly Clear 21 -6.1 10 -12.2 62 62 NE 7 11 30.64 1038 10 16.0934 0 0
8:52 am 08:52 Mostly Cloudy 22 -5.6 12 -11.1 66 66 NE 6 9 30.66 1038 10 16.0934 0 0
9:52 am 09:52 Mostly Sunny 25 -3.9 12 -11.1 58 58 NE 6 9 30.65 1038 10 16.0934 0 0
10:52 am 10:52 Partly Cloudy 25 -3.9 11 -11.7 55 55 ENE 8 13 30.66 1038 10 16.0934 0 0
11:52 am 11:52 Partly Cloudy 28 -2.2 12 -11.1 51 51 VRB 3 6 30.64 1038 10 16.0934 0 0
12:52 pm 12:52 Sunny 28 -2.2 12 -11.1 51 51 Calm 30.6 1036 10 16.0934 0 0
1:52 pm 13:52 Mostly Sunny 30 -1.1 12 -11.1 47 47 Calm 30.58 1036 10 16.0934 0 0
2:52 pm 14:52 Sunny 30 -1.1 12 -11.1 47 47 Calm 30.55 1035 10 16.0934 0 0
3:52 pm 15:52 Sunny 31 -0.6 11 -11.7 43 43 Calm 30.55 1034 10 16.0934 0 0
4:52 pm 16:52 Sunny 31 -0.6 12 -11.1 45 45 N 3 6 30.53 1034 10 16.0934 0 0
5:52 pm 17:52 Mostly Clear 29 -1.7 11 -11.7 47 47 NNW 3 6 30.54 1034 10 16.0934 0 0
6:52 pm 18:52 Mostly Clear 26 -3.3 12 -11.1 55 55 NNE 5 7 30.55 1035 10 16.0934 0 0
7:52 pm 19:52 Clear 25 -3.9 13 -10.6 60 60 NNW 3 6 30.56 1035 10 16.0934 0 0
8:52 pm 20:52 Clear 26 -3.3 13 -10.6 57 57 Calm 30.55 1035 10 16.0934 0 0
9:52 pm 21:52 Clear 23 -5 13 -10.6 65 65 ESE 3 6 30.53 1034 10 16.0934 0 0
10:52 pm 22:52 Clear 23 -5 13 -10.6 65 65 ESE 8 13 30.5 1033 10 16.0934 0 0
11:52 pm 23:52 Mostly Clear 22 -5.6 13 -10.6 68 68 SSE 6 9 30.48 1032 10 16.0934 0 0

Powered by AerisWeather